Location: Newark
(35.0033°N, 81.0878°W)
Time: 09:46:01
(UTC+00:00)

JUGNU - Visible Passes

Search period start: 18 October 2019 00:00
Search period end: 28 October 2019 00:00
Orbit: 837 x 864 km, 20.0° (Epoch: 17 October)

Date Brightness Start Highest point End Pass type
(mag) Time Alt. Az. Time Alt. Az. Time Alt. Az.
18 Oct ? 09:10:47 10° S 09:10:47 10° S 09:10:59 10° S visible
27 Oct ? 01:22:57 10° SSW 01:23:36 12° SSW 01:23:36 12° SSW visible
27 Oct ? 23:22:18 10° S 23:23:04 10° SSE 23:23:51 10° SSE visible
